AO-07 1 07530U 74089B 22006.82315156 -.00000045 00000-0 45503-5 0 9996 2 07530 101.8843 346.3185 0012309 352.9697 68.5302 12.53652121157452 UO-11 1 14781U 84021B 22006.77722214 .00000197 00000-0 30065-4 0 9993 2 14781 97.6047 1.7414 0009594 127.0360 233.1734 14.83403995 37075 LO-19 1 20442U 90005G 22006.46389952 .00000021 00000-0 24221-4 0 9990 2 20442 98.7715 329.0659 0010725 286.4801 73.5204 14.33014836669903 HUBBLE 1 20580U 90037B 22006.51273736 .00000750 00000-0 34153-4 0 9990 2 20580 28.4688 161.2546 0002843 89.5780 308.7378 15.09925669541718 MET-2/21 1 22782U 93055A 22006.46906097 .00000019 00000-0 34495-5 0 9994 2 22782 82.5495 142.8056 0023527 82.8923 341.3924 13.83843899431609 AO-27 1 22825U 93061C 22006.55233177 -.00000007 00000-0 15122-4 0 9994 2 22825 98.9045 34.0185 0008848 157.2066 202.9509 14.30138463475019 IO-26 1 22826U 93061D 22006.54441799 -.00000001 00000-0 17547-4 0 9992 2 22826 98.8987 33.9013 0009576 145.3089 214.8719 14.30480086475515 FO-29 1 24278U 96046B 22006.57162189 -.00000058 00000-0 -20958-4 0 9990 2 24278 98.5396 52.3633 0349984 343.4107 15.5812 13.53109097253714 NOAA-15 1 25338U 98030A 22006.76924868 .00000025 00000-0 28748-4 0 9991 2 25338 98.6628 38.2700 0011149 52.7033 307.5161 14.26080751230224 GO-32 1 25397U 98043D 22006.79134093 .00000004 00000-0 21521-4 0 9995 2 25397 98.7980 317.0229 0001049 161.7645 198.3571 14.23727114220647 ISS 1 25544U 98067A 22006.54868645 .00000440 00000-0 15775-4 0 9993 2 25544 51.6452 57.0414 0005418 7.8702 138.4778 15.49868840320116 NO-44 1 26931U 01043C 22006.54556305 -.00000016 00000-0 25793-4 0 9990 2 26931 67.0514 116.2880 0006596 280.6246 79.4112 14.30653131 58246 SO-50 1 27607U 02058C 22006.59061774 .00000120 00000-0 37518-4 0 9997 2 27607 64.5557 77.1013 0065467 327.3224 32.3834 14.75866077 24488 CO-55 1 27844U 03031E 22006.56683999 .00000068 00000-0 50391-4 0 9993 2 27844 98.6801 16.6959 0009395 205.4513 154.6203 14.22366610960851 CO-57 1 27848U 03031J 22006.55052295 .00000049 00000-0 42118-4 0 9992 2 27848 98.6851 17.2266 0009065 220.0243 140.0267 14.21935680960672 RS-22 1 27939U 03042A 22006.77076635 .00000228 00000-0 49397-4 0 9998 2 27939 98.1670 147.8144 0012792 4.7534 355.3801 14.67097862977330 NOAA-18 1 28654U 05018A 22006.79503001 .00000087 00000-0 70891-4 0 9998 2 28654 98.9708 77.2230 0015062 70.3324 289.9472 14.12674430857241 CO-58 1 28895U 05043F 22006.35143968 .00000254 00000-0 57374-4 0 9994 2 28895 98.0835 140.5106 0015495 293.0381 66.9188 14.64046032863694 Falconsat-3 1 30776U 07006E 22006.70892723 .00006871 00000-0 14711-3 0 9993 2 30776 35.4321 231.2737 0003764 318.8656 41.1789 15.44113219824505 CO-65 1 32785U 08021C 22006.43627077 .00000516 00000-0 60457-4 0 9990 2 32785 97.6369 342.7098 0014155 54.7275 305.5264 14.88973237742376 AAUSAT2 1 32788U 08021F 22006.51602378 .00001731 00000-0 15867-3 0 9993 2 32788 97.5203 357.8855 0010205 313.9859 46.0521 14.96125434744319 DO-64 1 32789U 08021G 22006.58561740 .00002440 00000-0 15243-3 0 9994 2 32789 97.3570 39.0472 0012002 155.8396 204.3399 15.10310673747475 CO-66 1 32791U 08021J 22006.49726585 .00000956 00000-0 10012-3 0 9996 2 32791 97.5935 348.4557 0013491 16.6168 343.5490 14.91769342743125 RS-30 1 32953U 08025A 22006.76932545 .00000021 00000-0 80971-4 0 9990 2 32953 82.5043 284.4753 0018386 254.9274 104.9772 12.43106777618247 PRISM 1 33493U 09002B 22006.46758264 .00001641 00000-0 14327-3 0 9997 2 33493 98.2138 344.1641 0013824 338.8826 21.1823 14.98284725704710 NOAA-19 1 33591U 09005A 22006.70748632 .00000043 00000-0 48718-4 0 9991 2 33591 99.1674 37.2907 0013017 283.1031 76.8687 14.12520317665619 SRMSAT 1 37841U 11058D 22006.57214006 .00000329 00000-0 35809-4 0 9996 2 37841 19.9706 153.3967 0011941 5.7840 69.1946 14.10719843528357 HRBE 1 37855U 11061F 22006.40942808 .00002156 00000-0 10722-3 0 9991 2 37855 101.7204 40.4843 0162540 186.4603 173.4517 15.09163980556774 RS-40 1 38735U 12041C 22006.49610340 .00000027 00000-0 12370-3 0 9996 2 38735 82.4779 6.4855 0017476 8.5981 351.5395 12.42584080428402 ZACUBE-1 1 39417U 13066B 22006.73110690 .00000428 00000-0 59246-4 0 9991 2 39417 97.6167 345.8083 0057483 213.6304 146.1257 14.81761671439171 Delfi-N3xt 1 39428U 13066N 22006.79089428 .00000726 00000-0 12058-3 0 9993 2 39428 97.8023 308.3392 0120510 74.5648 286.8832 14.68340762434984 GOMX-1 1 39430U 13066Q 22006.77885369 .00000405 00000-0 81584-4 0 9997 2 39430 97.8158 283.1845 0149673 193.9165 165.7896 14.59801765432708 LO-74 1 39440U 13066AA 22006.44281311 .00000573 00000-0 85674-4 0 9999 2 39440 97.7051 331.0967 0078259 297.6204 61.7076 14.76478127436378 AO-73 1 39444U 13066AE 22006.52061946 .00000532 00000-0 70486-4 0 9992 2 39444 97.6058 347.9993 0056674 203.3648 156.4989 14.82717133437529 SPROUT 1 39770U 14029E 22006.79589759 .00002010 00000-0 21890-3 0 9997 2 39770 97.9316 123.1615 0007428 256.4644 103.5737 14.89130449413595 DTUSAT-2 1 40030U 14033W 22006.75548474 .00000643 00000-0 73830-4 0 9990 2 40030 97.9286 299.0730 0010694 221.4846 138.5559 14.89273280410080 EO-80 1 40032U 14033Y 22006.38815118 .00000567 00000-0 65940-4 0 9991 2 40032 97.9293 298.7152 0010592 223.6785 136.3594 14.89236301409498 HODOYOSHI-1 1 40299U 14070B 22006.83810288 .00001921 00000-0 78721-4 0 9996 2 40299 97.2660 79.7404 0012543 357.9496 66.5039 15.25395388398418 FIREBIRD FU3 1 40377U 15003B 22006.50907054 .00005741 00000-0 19794-3 0 9990 2 40377 99.1125 195.9228 0111049 211.2271 148.2334 15.24813645383703 FIREBIRD FU4 1 40378U 15003C 22006.54332427 .00006379 00000-0 21898-3 0 9997 2 40378 99.1130 196.1418 0111061 210.8400 148.6278 15.24878655383711 GRIFEX 1 40379U 15003D 22006.71504291 .00004234 00000-0 16618-3 0 9999 2 40379 99.1146 183.8481 0123022 247.9029 110.9102 15.19741916383047 XW-2A 1 40903U 15049E 22006.83022953 .00006797 00000-0 13290-3 0 9994 2 40903 97.2092 65.6336 0011475 0.4675 112.4007 15.47696306354224 XW-2C 1 40906U 15049H 22006.91161315 .00001975 00000-0 10196-3 0 9997 2 40906 97.4902 11.8619 0013757 194.2832 230.3077 15.17428706348413 XW-2D 1 40907U 15049J 22006.86747954 .00002357 00000-0 11963-3 0 9999 2 40907 97.4898 11.6946 0013202 189.7459 287.7903 15.17842848348442 LILACSAT-2 1 40908U 15049K 22006.89365957 .00000852 00000-0 49336-4 0 9996 2 40908 97.5115 9.2548 0014496 210.9393 215.2793 15.14840883348028 XW-2E 1 40909U 15049L 22006.86563838 .00003355 00000-0 15558-3 0 9991 2 40909 97.4665 15.9561 0012666 172.4730 307.2654 15.20686850348837 XW-2F 1 40910U 15049M 22006.80404663 .00003373 00000-0 15864-3 0 9997 2 40910 97.4735 14.9965 0014042 173.5814 304.0941 15.20180398348604 XW-2B 1 40911U 15049N 22006.88170466 .00002252 00000-0 11475-3 0 9996 2 40911 97.4891 12.3554 0013010 190.7455 285.6139 15.17750278348339 DCBB 1 40912U 15049P 22006.84930821 .00003724 00000-0 16160-3 0 9993 2 40912 97.4414 19.4174 0014897 143.9063 338.7302 15.22869990349135 TW-1A 1 40928U 15051D 22006.78375721 .00011317 00000-0 20595-3 0 9992 2 40928 97.0602 32.0436 0006339 267.7037 207.5428 15.49640584353139 IO-86 1 40931U 15052B 22006.21557870 .00000616 00000-0 -32820-5 0 9999 2 40931 5.9976 246.2593 0012609 32.3275 256.7128 14.76716571339311 ATHENOXAT-1 1 41168U 15077C 22006.22043814 .00005319 00000-0 22474-3 0 9994 2 41168 14.9804 208.8827 0010089 126.6576 20.7090 15.17149135335606 ChubuSat-2 1 41338U 16012B 22006.27663705 .00000744 00000-0 50511-4 0 9996 2 41338 31.0040 335.9811 0013487 343.7868 16.2335 15.00776021323097 ChubuSat-3 1 41339U 16012C 22006.28084283 .00000892 00000-0 61698-4 0 9998 2 41339 31.0122 332.9918 0013309 351.2479 8.7925 15.00904027323099 Horyu-4 1 41340U 16012D 22006.23471398 .00001175 00000-0 80267-4 0 9990 2 41340 31.0054 314.2047 0013444 27.1662 332.9676 15.02303223323306 e-st@r-II 1 41459U 16025D 22006.68885184 .00005596 00000-0 26271-3 0 9991 2 41459 98.1659 160.5838 0156347 97.1259 264.7762 15.09824932313063 AAUSAT4 1 41460U 16025E 22006.65683278 .00005998 00000-0 26371-3 0 9997 2 41460 98.1600 165.5435 0141044 77.4962 284.1981 15.13717042313426 LO-87 1 41557U 16033B 22006.53038615 .00004928 00000-0 16703-3 0 9999 2 41557 97.3921 104.4998 0011069 228.4744 255.2219 15.30971073312589 NuSat2 1 41558U 16033C 22006.84397329 .00004880 00000-0 15486-3 0 9998 2 41558 97.4071 109.6332 0010188 218.5831 291.3550 15.33107252312867 Lapan A3 1 41603U 16040E 22006.80343723 .00000430 00000-0 22803-4 0 9991 2 41603 97.2300 50.7057 0013875 16.4706 103.4626 15.20229883307472 Pratham 1 41783U 16059A 22006.56993171 .00000106 00000-0 29513-4 0 9996 2 41783 97.9380 54.4159 0032657 327.1151 32.8020 14.63212464281955 TY-1 1 41844U 16066D 22006.84742047 .00004244 00000-0 16354-3 0 9992 2 41844 97.3952 20.0265 0015436 134.6425 348.0570 15.26777453286928 CAS-2T 1 41847U 16066G 22006.19940834 .00000158 00000-0 34548-4 0 9993 2 41847 98.5755 70.8898 0364271 335.1371 23.2638 14.38318017271023 EO-88 1 42017U 17008BX 22006.12113439 .00004199 00000-0 14710-3 0 9993 2 42017 97.2927 75.0215 0007242 104.5868 255.6176 15.29999846272228 CAS-4B 1 42759U 17034B 22006.85228019 .00001127 00000-0 80050-4 0 9995 2 42759 43.0153 142.5226 0008544 347.0217 147.7417 15.10693685251904 CAS-4A 1 42761U 17034D 22006.76696602 .00001238 00000-0 86416-4 0 9990 2 42761 43.0162 141.8972 0008939 348.9162 154.4690 15.10781695251899 NIUSat 1 42766U 17036B 22006.57447470 .00002127 00000-0 90983-4 0 9995 2 42766 97.2250 50.3038 0014798 172.7827 187.3627 15.23781332252136 Aalto 1 1 42775U 17036L 22006.36803462 .00001731 00000-0 75175-4 0 9995 2 42775 97.2213 50.2239 0013369 171.9942 188.1511 15.23529173252087 URSA MAIOR 1 42776U 17036M 22006.59284461 .00001904 00000-0 81556-4 0 9995 2 42776 97.2226 51.0343 0013173 170.1689 189.9809 15.23892838252146 Max Valier Sat 1 42778U 17036P 22006.57949128 .00001905 00000-0 79932-4 0 9999 2 42778 97.2295 53.3313 0011780 170.9814 189.1638 15.24611484252224 Pegasus 1 42784U 17036V 22006.59006834 .00002511 00000-0 10119-3 0 9991 2 42784 97.2241 53.9560 0011168 172.6469 187.4936 15.25686906252311 NUDATSat 1 42787U 17036Y 22006.88704852 .00006477 00000-0 23649-3 0 9998 2 42787 97.2283 57.4183 0010599 161.7606 198.3999 15.28398099252382 SUCHAI 1 1 42788U 17036Z 22006.40264180 .00003142 00000-0 12194-3 0 9991 2 42788 97.2249 55.0616 0010754 169.0240 191.1236 15.26767343252439 SKCUBE 1 42789U 17036AA 22006.60468034 .00002878 00000-0 11321-3 0 9994 2 42789 97.2245 54.8594 0010721 169.0182 191.1293 15.26380290252364 VZLUSAT 1 1 42790U 17036AB 22006.55882767 .00004029 00000-0 14848-3 0 9990 2 42790 97.2279 57.0831 0010056 162.6379 197.5207 15.28331004252489 VENTA 1 1 42791U 17036AC 22006.40274839 .00002615 00000-0 10373-3 0 9998 2 42791 97.2244 54.6399 0010289 170.1664 189.9778 15.26186711252325 Robusta 1B 1 42792U 17036AD 22006.60324850 .00003049 00000-0 11869-3 0 9993 2 42792 97.2246 55.3251 0010302 168.8605 191.2865 15.26691146252403 D-SAT 1 42794U 17036AF 22006.47395816 .00000566 00000-0 53903-4 0 9997 2 42794 97.4539 20.5139 0123182 267.2373 91.4743 14.91898612247327 TechnoSat 1 42829U 17042E 22006.61681569 .00000439 00000-0 49061-4 0 9991 2 42829 97.4397 230.0230 0013902 182.3801 177.7354 14.91463094243963 QIKCOM-1 1 42983U 98067NF 22006.63902511 .00016989 00000-0 12400-3 0 9996 2 42983 51.6349 302.9599 0003537 61.0250 299.1102 15.73391045239315 AO-91 1 43017U 17073E 22006.45958405 .00001748 00000-0 13816-3 0 9995 2 43017 97.6919 267.2465 0253058 358.0180 2.0006 14.80131478223145 PICSAT 1 43132U 18004X 22006.20670805 .00003395 00000-0 12925-3 0 9996 2 43132 97.3908 83.8842 0007876 203.7208 156.3669 15.27398984221618 AO-92 1 43137U 18004AC 22006.44495210 .00002548 00000-0 10050-3 0 9998 2 43137 97.3879 83.3125 0007604 205.3651 154.7215 15.26460647221612 TianYi 2 1 43155U 18008A 22006.86117969 .00002389 00000-0 13745-3 0 9997 2 43155 97.3779 70.5132 0016601 351.1901 123.8486 15.13279527218829 Zhou Enlai 1 43156U 18008B 22006.84810355 .00003001 00000-0 17355-3 0 9998 2 43156 97.3832 70.3467 0013843 352.6726 136.6217 15.12939834218754 TianYi 6 1 43158U 18008D 22006.73929429 .00001915 00000-0 11426-3 0 9996 2 43158 97.3760 68.5086 0013219 352.2705 124.4580 15.12236103218658 S-Net D 1 43186U 18014G 22006.39930980 .00000379 00000-0 37624-4 0 9992 2 43186 97.6682 275.2082 0011942 118.6729 241.5695 14.97309280214663 S-Net B 1 43187U 18014H 22006.66662507 .00000381 00000-0 37796-4 0 9993 2 43187 97.6678 275.4291 0011960 117.8365 242.4071 14.97308722214703 S-Net A 1 43188U 18014J 22006.73365178 .00000385 00000-0 38107-4 0 9997 2 43188 97.6682 275.5493 0011969 117.7314 242.5124 14.97307857214715 S-Net C 1 43189U 18014K 22006.73418810 .00000403 00000-0 39685-4 0 9993 2 43189 97.6677 275.4860 0011982 117.6643 242.5796 14.97306973213268 FMN 1 1 43192U 18015A 22006.79906848 .00009113 00000-0 30811-3 0 9995 2 43192 97.5129 148.8667 0012236 242.1880 250.0047 15.30796955218664 Shaonian Xing 1 43199U 18015H 22006.80590603 .00005933 00000-0 21018-3 0 9997 2 43199 97.4904 145.1774 0013599 253.1356 244.3377 15.29419717218706 SurfSat 1 43614U 18070B 22006.53430842 .00006926 00000-0 14502-3 0 9991 2 43614 93.0206 30.7079 0010170 300.9166 59.1091 15.45403226185999 CP-7 DAVE 1 43615U 18070C 22006.53286017 .00006784 00000-0 14415-3 0 9990 2 43615 93.0209 30.6299 0010418 301.3043 58.7194 15.44968109185972 ELFIN-B 1 43616U 18070D 22006.57443330 .00010095 00000-0 17991-3 0 9990 2 43616 93.0160 31.1872 0009175 293.1370 66.8923 15.50047998186175 ELFIN-A 1 43617U 18070E 22006.58135508 .00010092 00000-0 17480-3 0 9997 2 43617 93.0213 32.2596 0008392 289.0974 70.9378 15.50865876186201 CubeBel-1 1 43666U 18083E 22006.82666057 .00003500 00000-0 16316-3 0 9993 2 43666 97.4383 37.5519 0014285 172.0347 291.7790 15.20450543176902 Changshagaoxin 1 43669U 18083H 22006.78878016 .00003142 00000-0 15255-3 0 9994 2 43669 97.4304 33.9758 0010562 166.3903 309.5425 15.19151613176740 Ten-Koh 1 43677U 18084G 22006.59329414 .00000265 00000-0 32922-4 0 9990 2 43677 97.9425 135.4829 0017359 85.8253 274.4948 14.90653585173569 PO-101 1 43678U 18084H 22006.82264075 .00000072 00000-0 12893-4 0 9999 2 43678 97.9475 138.4922 0011341 97.4273 262.8222 14.91872995173754 IRVINE 01 1 43693U 18088D 22006.59380122 .00005489 00000-0 19485-3 0 9996 2 43693 85.0317 59.6565 0014687 2.8923 357.2405 15.28689949175434 QO-100 1 43700U 18090A 22006.54221704 .00000141 00000-0 00000-0 0 9993 2 43700 0.0156 55.6691 0001872 261.7548 9.6376 1.00272464 11404 Reaktor Hello World 1 43743U 18096AA 22006.46853335 .00003029 00000-0 10571-3 0 9993 2 43743 97.3694 87.4072 0014907 277.1023 82.8522 15.30283991173168 MinXSS-2 1 43758U 18099A 22006.74152189 .00001319 00000-0 12103-3 0 9995 2 43758 97.6461 78.5135 0017020 88.8894 271.4278 14.96442200168914 AO-95 1 43770U 18099N 22006.72432072 .00000820 00000-0 78677-4 0 9994 2 43770 97.6432 77.1999 0015863 97.8313 262.4709 14.95650724168839 RANGE-B 1 43772U 18099Q 22006.50558306 .00000430 00000-0 43311-4 0 9995 2 43772 97.6533 78.3237 0015324 85.9213 274.3759 14.96056208168813 RANGE-A 1 43773U 18099R 22006.41480388 .00000591 00000-0 58425-4 0 9990 2 43773 97.6366 76.0011 0015044 86.6730 273.6212 14.95459899168777 MOVE-II 1 43780U 18099Y 22006.72628699 .00001266 00000-0 11643-3 0 9991 2 43780 97.6458 78.0069 0014649 94.6010 265.6885 14.96454093168861 SNUSat 2 1 43782U 18099AA 22006.72559886 .00000773 00000-0 74158-4 0 9997 2 43782 97.6431 77.6126 0014055 85.1040 275.1785 14.95867972168859 SnugLite 1 43784U 18099AC 22006.71547385 .00000529 00000-0 52063-4 0 9999 2 43784 97.6394 77.2778 0016269 91.5014 268.8072 14.96018196168876 ITASat 1 1 43786U 18099AE 22006.40541970 .00001070 00000-0 10050-3 0 9992 2 43786 97.6458 77.7070 0016659 92.1470 268.1659 14.95902861168824 EAGLET 1 1 43790U 18099AJ 22006.72881196 .00000676 00000-0 64870-4 0 9990 2 43790 97.6444 78.5122 0014829 94.6495 265.6420 14.96208613168601 ESEO 1 43792U 18099AL 22006.75069673 .00000447 00000-0 44973-4 0 9991 2 43792 97.6410 77.9465 0014908 91.2729 269.0200 14.95882390168658 CSIM 1 43793U 18099AM 22006.50422092 .00000536 00000-0 51356-4 0 9995 2 43793 97.6461 78.5107 0014087 87.7048 272.5787 14.97124268168640 Astrocast 0.1 1 43798U 18099AS 22006.77665629 .00000636 00000-0 60870-4 0 9996 2 43798 97.6456 78.8554 0013478 74.7388 285.5323 14.96562238168927 JO-97 1 43803U 18099AX 22006.73324837 .00001116 00000-0 10374-3 0 9999 2 43803 97.6417 77.7639 0016531 90.9706 269.3410 14.96218748168886 Suomi 100 1 43804U 18099AY 22006.74366969 .00001153 00000-0 10711-3 0 9999 2 43804 97.6416 77.7213 0016717 90.6970 269.6166 14.96174278168891 Al Farabi 2 1 43805U 18099AZ 22006.57594837 .00000473 00000-0 46602-4 0 9991 2 43805 97.6433 77.9002 0016485 90.1917 270.1203 14.96488544168889 CHOMPTT 1 43855U 18104G 22006.48803914 .00002849 00000-0 11194-3 0 9998 2 43855 85.0374 158.8775 0018379 113.6864 246.6311 15.25045906170022 ISAT 1 43879U 18111D 22006.75597493 .00001488 00000-0 13397-3 0 9999 2 43879 97.6750 275.3079 0014124 137.2134 223.0201 14.97032562163462 UWE-4 1 43880U 18111E 22006.71303744 .00000268 00000-0 28139-4 0 9997 2 43880 97.6790 275.8657 0012853 136.6625 223.5610 14.97249768163490 Sparrow 1 43881U 18111F 22006.54144695 .00000918 00000-0 84009-4 0 9997 2 43881 97.6789 275.8732 0013217 136.7158 223.5105 14.97319703165476 Lume 1 1 43908U 18111AJ 22006.44256684 .00002740 00000-0 10420-3 0 9998 2 43908 97.2118 259.4972 0018085 293.7435 66.1908 15.27463362168641 FO-98 1 43933U 19003B 22006.54204202 .00023148 00000-0 64081-3 0 9994 2 43933 97.1605 46.1759 0013253 34.2936 325.9162 15.36900974165177 FO-99 1 43937U 19003F 22006.55370897 .00002803 00000-0 10714-3 0 9992 2 43937 97.1523 46.4621 0022731 16.0545 344.1410 15.27165940165249 MYSat 1 1 44045U 18092F 22006.65084398 .00008390 00000-0 19168-3 0 9998 2 44045 51.6358 152.3227 0009491 224.3122 135.7105 15.43691645162801 AstroCast 0.2 1 44083U 19018F 22006.70726512 .00003070 00000-0 12984-3 0 9995 2 44083 97.3472 68.8179 0011706 346.1273 13.9641 15.23905067153835 AISTechSat 3 1 44103U 19018AB 22006.82275480 .00003198 00000-0 13045-3 0 9994 2 44103 97.3345 69.3757 0012558 354.9543 116.5762 15.25085958153999 AISat 1 1 44104U 19018AC 22006.21397044 .00001965 00000-0 61177-4 0 9999 2 44104 97.4099 88.9554 0055011 354.8039 5.2625 15.33093094154722 Prox-1 1 44339U 19036A 22006.54857398 .00001337 00000-0 26133-3 0 9993 2 44339 23.9997 134.6732 0010608 245.6977 114.2406 14.54056131134753 Oculus-ASR 1 44348U 19036K 22006.78390652 .00013618 00000-0 16439-3 0 9997 2 44348 28.5090 213.3891 0298099 320.0853 37.8171 15.20531524139798 Armadillo 1 44352U 19036P 22006.78936416 .00026260 -57876-5 25459-3 0 9994 2 44352 28.5258 171.7586 0247952 25.4151 335.8417 15.33829331140163 NO-104 1 44354U 19036R 22005.79921901 .00016102 00000-0 18883-3 0 9997 2 44354 28.5260 209.9699 0291958 323.0647 35.0168 15.22429649139749 NO-103 1 44355U 19036S 22006.56646509 .00067563 -50457-5 49500-3 0 9996 2 44355 28.5230 115.4446 0186837 116.5430 245.4454 15.51581298140740 Move-IIb 1 44398U 19038N 22006.57789995 .00004215 00000-0 22758-3 0 9997 2 44398 97.6093 335.1460 0022660 332.7825 27.2206 15.15073677138500 SONATE 1 44400U 19038Q 22006.57668506 .00001666 00000-0 97152-4 0 9993 2 44400 97.6179 334.7848 0023859 334.5270 25.4778 15.13164061138442 BeeSat 9 1 44412U 19038AC 22006.41395796 .00002163 00000-0 12128-3 0 9999 2 44412 97.6164 335.0888 0021011 339.2209 20.8166 15.14300136138153 JAISAT-1 1 44419U 19038F 22006.45091725 .00002649 00000-0 14579-3 0 9996 2 44419 97.6168 335.8346 0019830 336.8997 23.1342 15.14784527138516 LightSail-2 1 44420U 19036AC 22006.35475829 .00012093 00000-0 22224-2 0 9995 2 44420 24.0038 100.1796 0015240 320.1947 39.7428 14.63821682133208 Taurus 1 1 44530U 19059C 22006.85689777 .00001104 00000-0 31967-3 0 9992 2 44530 98.5491 103.9475 0012995 243.3304 116.6542 14.46410559122489 Duchifat 3 1 44854U 19089C 22006.26594363 .00001549 00000-0 12864-3 0 9993 2 44854 36.9646 340.9131 0008302 333.8560 26.1748 14.99949600113568 OPS-SAT 1 44878U 19092F 22006.76129668 .00002370 00000-0 12150-3 0 9991 2 44878 97.4744 192.4621 0013301 177.3465 182.7842 15.17475228113654 TO-108 1 44881U 19093C 22006.76512418 .00000219 00000-0 34671-4 0 9998 2 44881 97.9094 88.2123 0015089 357.9125 2.2015 14.81537434110837 FloripaSat 1 1 44885U 19093G 22006.79570844 .00000741 00000-0 98744-4 0 9993 2 44885 97.9119 89.1637 0014555 5.2163 354.9189 14.82550746110898 RS-44 1 44909U 19096E 22006.43190086 .00000019 00000-0 34216-4 0 9992 2 44909 82.5224 337.9364 0217103 338.8583 20.3645 12.79711971 94781 Phoenix 1 45258U 98067RB 22006.42100624 .00019545 00000-0 20516-3 0 9994 2 45258 51.6374 28.7172 0004294 314.5357 45.5287 15.64362126106886 QARMAN 1 45263U 98067RG 22006.47761961 .00151940 00000-0 54990-3 0 9991 2 45263 51.6313 7.1958 0005008 37.7916 322.3440 15.87609386107231 Quetzal 1 1 45598U 98067RL 22006.40521122 .00073860 00000-0 41024-3 0 9996 2 45598 51.6367 17.3337 0004721 48.0281 312.1121 15.78820999 96365 BY70-2 1 45857U 20042B 22006.83225960 .00002681 00000-0 37991-3 0 9991 2 45857 97.9703 85.4082 0009434 275.9475 84.0630 14.77838712 81572 UPMSat 2 1 46276U 20061E 22006.16129699 .00001184 00000-0 63336-4 0 9996 2 46276 97.4127 80.6823 0002452 56.0096 304.1371 15.16967134 74264 AmicalSat 1 46287U 20061R 22006.25199626 .00001402 00000-0 87428-4 0 9996 2 46287 97.4677 79.9090 0004123 108.9341 251.2337 15.11115991 73961 SALSAT 1 46495U 20068K 22006.56963551 .00001481 00000-0 11204-3 0 9999 2 46495 97.7118 308.0879 0018234 104.7216 255.6030 15.03771113 69855 BY70-3 1 46839U 20079N 22006.76648688 .00007120 00000-0 20527-3 0 9990 2 46839 97.2208 81.6184 0006254 183.1848 326.8794 15.35999449 65387 SPOC 1 46921U 98067RR 22006.31145446 .00017718 00000-0 20703-3 0 9999 2 46921 51.6395 40.0820 0001902 76.7746 283.3459 15.61681374 66475 Bobcat-1 1 46922U 98067RS 22006.32716432 .00037243 00000-0 32451-3 0 9998 2 46922 51.6409 33.4702 0002352 58.8455 301.2772 15.68626826 66527 Neutron-1 1 46923U 98067RT 22006.66364706 .00017435 00000-0 20449-3 0 9994 2 46923 51.6402 38.6866 0001638 84.8254 275.2927 15.61597388 66548 CAPE 3 1 47309U 21002A 22006.67206901 .00002069 00000-0 10081-3 0 9999 2 47309 60.6844 251.6302 0033196 157.0287 203.2293 15.21948037 53801 AO-109 1 47311U 21002C 22006.20688770 .00002045 00000-0 97749-4 0 9990 2 47311 60.6859 251.6724 0030290 150.8795 209.3989 15.22743924 53735 MiTEE 1 1 47314U 21002F 22006.36225215 .00003168 00000-0 13504-3 0 9994 2 47314 60.6830 247.7939 0032279 143.5469 216.7826 15.25109126 53833 ExoCube 2 1 47319U 21002L 22006.22773195 .00001874 00000-0 91582-4 0 9994 2 47319 60.6832 252.2981 0030493 154.8091 205.4491 15.22348823 53693 UVSQ-SAT 1 47438U 21006AB 22006.16086660 .00001568 00000-0 90099-4 0 9999 2 47438 97.4621 68.5346 0013973 115.1231 245.1452 15.13877201 52719 YUSAT 1 1 47439U 21006AC 22006.68644450 .00001478 00000-0 84865-4 0 9998 2 47439 97.4625 69.0706 0013812 113.7204 246.5478 15.13990897 52794 SOMP 2b 1 47445U 21006AJ 22006.39715709 .00001439 00000-0 83479-4 0 9996 2 47445 97.4596 68.5513 0013558 117.8111 242.4496 15.13671142 52746 IDEASSat 1 47458U 21006AX 22006.23016103 .00001603 00000-0 92924-4 0 9993 2 47458 97.4686 68.7316 0012654 116.3463 243.9069 15.13532157 52714 RSP-01 1 47925U 98067SB 22006.56366124 .00018848 00000-0 23940-3 0 9990 2 47925 51.6412 47.0089 0002675 48.9666 311.1557 15.59438352 46373 TAUSAT-1 1 47926U 98067SC 22006.67827491 .00025666 00000-0 28877-3 0 9992 2 47926 51.6399 44.0041 0003569 48.5625 311.5675 15.62399186 46412 Tsuru 1 47927U 98067SD 22006.37238205 .00016064 00000-0 21299-3 0 9992 2 47927 51.6405 48.7296 0002638 49.4481 310.6741 15.58424016 46331 STARS-EC 1 47928U 98067SE 22006.48433398 .00029608 00000-0 32649-3 0 9994 2 47928 51.6396 45.7108 0003057 116.8765 243.2542 15.62836238 46361 Maya-2 1 47929U 98067SF 22006.49625445 .00016208 00000-0 21481-3 0 9996 2 47929 51.6406 48.0542 0002740 48.2072 311.9154 15.58427528 46319 OPUSAT-II 1 47930U 98067SG 22006.71194669 .00034011 00000-0 36144-3 0 9996 2 47930 51.6392 43.4931 0003337 38.5448 321.5784 15.63708253 46430 GuaraniSat-1 1 47931U 98067SH 22006.36365188 .00015644 00000-0 20717-3 0 9994 2 47931 51.6415 48.6755 0002728 47.3089 312.8133 15.58479839 46339 CubeSX-Sirius-HSE 1 47951U 21022V 22006.79194073 .00001848 00000-0 12977-3 0 9993 2 47951 97.5461 269.7178 0021126 343.1060 102.3146 15.06198406 43654 CubeSX-HSE 1 47952U 21022W 22006.77560017 .00001716 00000-0 12071-3 0 9996 2 47952 97.5452 269.7121 0021023 343.3197 54.4342 15.06236303 43656 KSU-Cubesat 1 47954U 21022Y 22006.41917141 .00001418 00000-0 10020-3 0 9994 2 47954 97.5454 269.4132 0021038 343.2235 16.8294 15.06350878 43323 GRBAlpha 1 47959U 21022AD 22006.71760700 .00001733 00000-0 12182-3 0 9990 2 47959 97.5458 269.6776 0021023 343.7831 100.5543 15.06244966 42461 Orbicraft-Zorkiy 1 47960U 21022AE 22006.89921171 .00001338 00000-0 94838-4 0 9992 2 47960 97.5463 269.9302 0021203 343.0055 79.2844 15.06322694 43189 STECCO 1 47962U 21022AG 22006.82320525 .00002345 00000-0 15776-3 0 9995 2 47962 97.5428 270.2066 0016346 339.8570 92.5747 15.07614253 42502 DO-111 1 47963U 21022AH 22006.68372505 .00003990 00000-0 25591-3 0 9998 2 47963 97.5450 270.4140 0018457 334.8277 25.2051 15.08939856 42520 MO-110 1 47964U 21022AJ 22006.35924320 .00001624 00000-0 10955-3 0 9991 2 47964 97.5441 269.9006 0018908 336.6042 23.4324 15.07912303 42447 FEES 1 48082U 21022AL 22006.23529732 .00001750 00000-0 11850-3 0 9993 2 48082 97.5452 269.6474 0015095 335.9251 24.1270 15.07712831 42122 RamSat 1 48850U 98067SL 22006.74460073 .00010808 00000-0 16766-3 0 9992 2 48850 51.6414 51.9301 0003131 163.7726 196.3365 15.54556677 32073 MO-112 1 48868U 98067SP 22006.36840614 .00029631 00000-0 35614-3 0 9999 2 48868 51.6394 50.9149 0000856 92.2245 267.8847 15.60602305 30839 TUBIN 1 48900U 21059X 22006.89777859 .00001831 00000-0 10841-3 0 9998 2 48900 97.5324 137.9196 0009043 307.2343 166.6640 15.12650643 29482 IT-SPINS 1 49017U 21013G 22006.59003860 .00002414 00000-0 11298-3 0 9994 2 49017 51.5905 92.4757 0006789 202.4735 157.5945 15.23701759 29080 LEDSAT 1 49069U 21073D 22006.67694193 .00001382 00000-0 94407-4 0 9998 2 49069 97.5442 82.7825 0029174 126.5897 233.8022 15.07479266 21453 CUTE 1 49263U 21088D 22006.41974825 .00001204 00000-0 96611-4 0 9997 2 49263 97.6043 77.5735 0018581 258.0160 101.8982 15.01840612 15096 Binar-1 1 49272U 98067SR 22006.51390580 .00010690 00000-0 17582-3 0 9997 2 49272 51.6416 55.6254 0005459 66.9374 293.2191 15.52935008 14396 Maya-3 1 49273U 98067SS 22006.43253869 .00012915 00000-0 20577-3 0 9997 2 49273 51.6414 55.8328 0005371 62.2168 297.9367 15.53608725 14381 Maya-4 1 49274U 98067ST 22006.43547559 .00012789 00000-0 20432-3 0 9999 2 49274 51.6414 55.8523 0005314 61.1274 299.0249 15.53542187 14383 CUAVA-1 1 49275U 98067SU 22006.77383370 .00016149 00000-0 25685-3 0 9995 2 49275 51.6433 54.1280 0005172 75.8434 32.7572 15.53446893 14387 TeikyoSat 4 1 49396U 21102B 22006.50598486 .00000425 00000-0 38472-4 0 9991 2 49396 97.5540 69.4015 0018901 76.0013 284.3311 15.00287669 8761 Z-Sat 1 49399U 21102E 22006.77312600 .00000611 00000-0 50903-4 0 9995 2 49399 97.5642 69.8438 0021881 61.6580 298.6848 15.02033487 8818 KOSEN 1 1 49402U 21102H 22006.80508469 -.00000053 00000-0 53565-6 0 9994 2 49402 97.5531 69.9130 0023908 51.5082 308.8283 15.02900942 8824 HO-113 1 50466U 21131B 22006.79578638 -.00000007 00000-0 12265-4 0 9990 2 50466 98.5975 84.0261 0003444 269.7660 90.3127 14.38435547 1678 /EX